Location: Clarion
(42.7316°N, 93.7330°W)
Time: 08:51:39
(UTC+00:00)

SL-08 R/B - Pass Details

Date: 22 April 2026
Orbit: 667 x 728 km, 98.5° (Epoch: 17 May)

Event Time Altitude Azimuth Distance (km) Brightness Sun altitude
Rises 02:02:37 0° 22° (NNE) 3,159 6.8 -10.7°
Reaches altitude 10° 02:05:05 10° 32° (NNE) 2,233 5.9 -11.1°
Maximum altitude 02:09:34 34° 97° (E) 1,179 4.0 -11.8°
Drops below altitude 10° 02:13:59 10° 162° (SSE) 2,208 5.5 -12.5°
Enters shadow 02:14:34 - 165° (SSE) 2,423 5.7 -12.6°
